Starlink 31222

operational
NORAD ID: 58828 Int'l Des: 2024-017 Owner: SPXS Country: US Constellation: starlink
LEOCIRCULAR

About Starlink 31222

Description loading...

Live Position

Loading 3D Globe...

Upcoming Passes

Altitude History

Altitude vs Time

uPlot chart will show altitude changes over time

Two-Line Element Set

1 58828U 24017C 25304.77549638 -.00000030 00000-0 11115-4 0 9995
2 58828 53.1596 82.7746 0001055 111.3610 248.7503 15.30183433100326
Epoch: Oct 31, 2025 • Age: 17 hours

Current Status

Altitude 481.1 km
Velocity 7.63 km/s
Sub-Earth Point -20.84°S, 67.28°E
Launch Date Jan 24, 2024
Age 1.7 years
Type internet

Technical Details

Classification Payload
Mass 730.00 kg
Dry Mass 700.00 kg
Total Mass 730.00 kg
Length 0.30 m
Diameter 4.10 m
Span 29.00 m
Shape Box + pan
Manufacturer SPXS
Bus Type Starlink V2M
Phase Status In Orbit
Owner/State SPXS/US

Large Constellations

Loading constellations...